M I D A S
Marine Information and Data Acquisition System
Tripno 69 of the Zeeleeuw from 2001-11-30 09:45:00 to 2001-11-30 15:10:00
Back to CruiseResearch ActivitiesStationsMapUnderway DataData graphs

EquipmentUnitsComment
TimeDGPSUTC
LatitudeDGPSDM.mWGS84
LongitudeDGPSDM.mWGS84
TemperatureSBE03/SBE38deg celciusITS90
ConductivitySBE21S/mITS90
SalinitySBE21 Practical Salinity Units
ChlorophylAChelsea fluorimeterg/lCalibrated in Aceton
Missing or incorrect values are displayed as -999
Sea surface data collected by the RV Zeeleeuw from 2001-11-30 09:45:00 to 2001-11-30 15:10:00
                                                                                    Next 1000 lines
Time Latitude Longitude Temperature Conductivity Salinity ChlorophylA
2001-11-30 09:45:08 51°19.984 2°59.489 19.404628 0.004317 0.026921  
2001-11-30 09:45:13 51°20 2°59.505 19.404628 0.004317 0.026921  
2001-11-30 09:45:19 51°20.02 2°59.523 19.4103 0.004317 0.026921  
2001-11-30 09:45:24 51°20.037 2°59.538 19.280131 0.004317 0.026921  
2001-11-30 09:45:29 51°20.053 2°59.553 19.410912 0.004317 0.026921  
2001-11-30 09:45:34 51°20.07 2°59.567 19.582574 0.004317 0.02692  
2001-11-30 09:45:39 51°20.087 2°59.582 19.553016 0.004317 0.02692  
2001-11-30 09:45:43 51°20.1 2°59.594 19.553016 0.004317 0.02692  
2001-11-30 09:45:49 51°20.12 2°59.612 19.147671 0.004317 0.02692  
2001-11-30 09:45:54 51°20.137 2°59.627 19.487829 0.004317 0.02692  
2001-11-30 09:45:59 51°20.153 2°59.643 19.255475 0.004317 0.02692  
2001-11-30 09:46:03 51°20.166 2°59.655 19.185957 0.004317 0.02692  
2001-11-30 09:46:09 51°20.186 2°59.674 19.215467 0.004317 0.02692  
2001-11-30 09:46:13 51°20.199 2°59.685 19.215467 0.004317 0.02692  
2001-11-30 09:46:18 51°20.216 2°59.699 19.356211 0.004317 0.02692  
2001-11-30 09:46:24 51°20.237 2°59.716 19.493535 0.004317 0.02692  
2001-11-30 09:46:27 51°20.247 2°59.725 19.729733 0.004317 0.02692  
2001-11-30 09:46:33 51°20.267 2°59.743 19.026819 0.004317 0.02692  
2001-11-30 09:46:39 51°20.286 2°59.763 19.224673 0.004317 0.02692  
2001-11-30 09:46:44 51°20.302 2°59.781 19.224673 0.004317 0.02692  
2001-11-30 09:46:49 51°20.318 2°59.797 19.225205 0.004317 0.02692  
2001-11-30 09:46:54 51°20.333 2°59.814 19.729287 0.004317 0.02692  
2001-11-30 09:46:59 51°20.349 2°59.831 19.556558 0.004317 0.02692  
2001-11-30 09:47:03 51°20.362 2°59.844 19.290555 0.004317 0.02692  
2001-11-30 09:47:08 51°20.379 2°59.86 19.332195 0.004317 0.02692  
2001-11-30 09:47:14 51°20.398 2°59.88 19.332195 0.004317 0.02692  
2001-11-30 09:47:19 51°20.414 2°59.896 19.532488 0.004317 0.02692  
2001-11-30 09:47:23 51°20.427 2°59.908 19.262059 0.004317 0.02692  
2001-11-30 09:47:29 51°20.447 2°59.927 19.336606 0.004317 0.02692  
2001-11-30 09:47:33 51°20.461 2°59.939 19.264267 0.004317 0.02692  
2001-11-30 09:47:38 51°20.477 2°59.954 19.536276 0.004317 0.02692  
2001-11-30 09:47:43 51°20.494 2°59.969 19.536276 0.004317 0.02692  
2001-11-30 09:47:49 51°20.513 2°59.989 19.339629 0.004317 0.02692  
2001-11-30 09:47:54 51°20.53 3°0.002 19.265453 0.004317 0.02692  
2001-11-30 09:47:59 51°20.547 3°0.019 19.411279 0.004317 0.02692  
2001-11-30 09:48:02 51°20.557 3°0.027 19.135833 0.004317 0.02692  
2001-11-30 09:48:08 51°20.577 3°0.045 19.275879 0.004317 0.02692  
2001-11-30 09:48:13 51°20.593 3°0.06 19.275879 0.004317 0.02692  
2001-11-30 09:48:19 51°20.613 3°0.078 19.440979 0.004317 0.02692  
2001-11-30 09:48:23 51°20.626 3°0.091 19.543486 0.004317 0.02692  
2001-11-30 09:48:29 51°20.647 3°0.108 19.311929 0.004317 0.02692  
2001-11-30 09:48:34 51°20.663 3°0.125 19.408708 0.004317 0.02692  
2001-11-30 09:48:39 51°20.68 3°0.139 19.649666 0.004317 0.02692  
2001-11-30 09:48:43 51°20.692 3°0.153 19.649666 0.004317 0.02692  
2001-11-30 09:48:48 51°20.709 3°0.167 19.240055 0.004317 0.02692  
2001-11-30 09:48:53 51°20.725 3°0.184 18.779091 0.004317 0.02692  
2001-11-30 09:48:59 51°20.745 3°0.201 19.81324 0.004317 0.02692  
2001-11-30 09:49:03 51°20.758 3°0.216 18.707778 0.004317 0.02692  
2001-11-30 09:49:09 51°20.778 3°0.232 19.283524 0.004317 0.02692  
2001-11-30 09:49:14 51°20.794 3°0.25 19.283524 0.004317 0.02692  
2001-11-30 09:49:19 51°20.811 3°0.264 18.772914 0.004317 0.02692  
2001-11-30 09:49:23 51°20.823 3°0.278 18.609238 0.004317 0.02692  
2001-11-30 09:49:29 51°20.843 3°0.294 19.008353 0.004317 0.02692  
2001-11-30 09:49:34 51°20.859 3°0.312 19.080957 0.004317 0.02692  
2001-11-30 09:49:39 51°20.876 3°0.325 19.082843 0.004317 0.02692  
2001-11-30 09:49:43 51°20.889 3°0.338 19.082843 0.004317 0.02692  
2001-11-30 09:49:49 51°20.909 3°0.356 18.507499 0.004317 0.02692  
2001-11-30 09:49:54 51°20.925 3°0.373 18.680734 0.004317 0.02692  
2001-11-30 09:49:59 51°20.942 3°0.387 18.877309 0.004317 0.02692  
2001-11-30 09:50:03 51°20.956 3°0.399 19.454519 0.004317 0.02692  
2001-11-30 09:50:09 51°20.976 3°0.417 19.552812 0.004317 0.02692  
2001-11-30 09:50:14 51°20.992 3°0.434 19.552812 0.004317 0.02692  
2001-11-30 09:50:19 51°21.009 3°0.449 19.18256 0.004317 0.02692  
2001-11-30 09:50:23 51°21.022 3°0.461 19.48738 0.004317 0.02692  
2001-11-30 09:50:29 51°21.042 3°0.48 19.050284 0.004317 0.02692  
2001-11-30 09:50:34 51°21.058 3°0.495 19.454519 0.004317 0.02692  
2001-11-30 09:50:39 51°21.074 3°0.51 19.285241 0.004317 0.02692  
2001-11-30 09:50:43 51°21.088 3°0.522 19.285241 0.004317 0.02692  
2001-11-30 09:50:49 51°21.107 3°0.543 19.222505 0.004317 0.02692  
2001-11-30 09:50:54 51°21.123 3°0.557 19.689548 0.004317 0.02692  
2001-11-30 09:50:59 51°21.139 3°0.574 19.221891 0.004317 0.02692  
2001-11-30 09:51:03 51°21.153 3°0.585 18.990867 0.004317 0.02692  
2001-11-30 09:51:08 51°21.169 3°0.602 19.122477 0.004317 0.02692  
2001-11-30 09:51:14 51°21.189 3°0.62 19.122477 0.004317 0.02692  
2001-11-30 09:51:19 51°21.205 3°0.637 19.393486 0.004317 0.02692  
2001-11-30 09:51:23 51°21.218 3°0.648 18.790043 0.004317 0.02692  
2001-11-30 09:51:28 51°21.234 3°0.666 19.193571 0.004317 0.02692  
2001-11-30 09:51:34 51°21.254 3°0.682 19.629614 0.004317 0.02692  
2001-11-30 09:51:39 51°21.27 3°0.699 19.494106 0.004317 0.02692  
2001-11-30 09:51:43 51°21.284 3°0.71 19.494106 0.004317 0.02692  
2001-11-30 09:51:48 51°21.3 3°0.727 19.531592 0.004317 0.02692  
2001-11-30 09:51:54 51°21.32 3°0.744 19.563196 0.004317 0.02692  
2001-11-30 09:51:59 51°21.335 3°0.762 19.534077 0.004317 0.02692  
2001-11-30 09:52:03 51°21.349 3°0.772 19.132023 0.004317 0.02692  
2001-11-30 09:52:09 51°21.368 3°0.793 19.130384 0.004317 0.02692  
2001-11-30 09:52:14 51°21.385 3°0.807 19.130384 0.004317 0.02692  
2001-11-30 09:52:18 51°21.397 3°0.821 19.064966 0.004317 0.02692  
2001-11-30 09:52:23 51°21.414 3°0.835 19.635227 0.004317 0.02692  
2001-11-30 09:52:29 51°21.433 3°0.855 19.301263 0.004317 0.02692  
2001-11-30 09:52:34 51°21.45 3°0.868 19.604511 0.004317 0.02692  
2001-11-30 09:52:39 51°21.466 3°0.886 19.032809 0.004317 0.02692  
2001-11-30 09:52:43 51°21.48 3°0.896 19.032809 0.004317 0.02692  
2001-11-30 09:52:48 51°21.495 3°0.913 19.232078 0.004317 0.02692  
2001-11-30 09:52:53 51°21.512 3°0.927 19.232733 0.004317 0.02692  
2001-11-30 09:52:59 51°21.531 3°0.946 19.404628 0.004317 0.026919  
2001-11-30 09:53:04 51°21.548 3°0.96 18.866535 0.004317 0.02692  
2001-11-30 09:53:09 51°21.564 3°0.976 19.17257 0.004317 0.02692  
2001-11-30 09:53:14 51°21.581 3°0.99 19.17257 0.004317 0.02692  
2001-11-30 09:53:19 51°21.597 3°1.006 19.241691 0.004317 0.026919  
2001-11-30 09:53:23 51°21.611 3°1.017 19.408627 0.004317 0.02692  
2001-11-30 09:53:28 51°21.627 3°1.033 19.742771 0.004317 0.02692  
2001-11-30 09:53:34 51°21.647 3°1.049 19.410218 0.004317 0.02692  
2001-11-30 09:53:38 51°21.66 3°1.063 19.109405 0.004317 0.02692  
2001-11-30 09:53:44 51°21.68 3°1.078 19.109405 0.004317 0.02692  
2001-11-30 09:53:49 51°21.696 3°1.094 19.343714 0.004317 0.02692  
2001-11-30 09:53:53 51°21.71 3°1.104 19.043065 0.004317 0.02692  
2001-11-30 09:53:58 51°21.726 3°1.119 19.312093 0.004317 0.02692  
2001-11-30 09:54:02 51°21.739 3°1.129 19.37973 0.004317 0.02692  
2001-11-30 09:54:07 51°21.756 3°1.142 19.345552 0.004317 0.02692  
2001-11-30 09:54:14 51°21.78 3°1.159 19.345552 0.004317 0.02692  
2001-11-30 09:54:19 51°21.797 3°1.174 19.416788 0.004317 0.02692  
2001-11-30 09:54:23 51°21.811 3°1.183 19.647632 0.004317 0.02692  
2001-11-30 09:54:29 51°21.831 3°1.199 19.198401 0.004317 0.026919  
2001-11-30 09:54:34 51°21.849 3°1.21 19.28336 0.004317 0.02692  
2001-11-30 09:54:39 51°21.866 3°1.223 19.352046 0.004317 0.026919  
2001-11-30 09:54:44 51°21.883 3°1.235 19.352046 0.004317 0.026919  
2001-11-30 09:54:49 51°21.9 3°1.248 19.320715 0.004317 0.02692  
2001-11-30 09:54:53 51°21.914 3°1.259 19.253798 0.004317 0.026919  
2001-11-30 09:54:58 51°21.931 3°1.27 19.588761 0.004317 0.02692  
2001-11-30 09:55:04 51°21.951 3°1.286 19.083745 0.004317 0.02692  
2001-11-30 09:55:08 51°21.966 3°1.296 19.451665 0.004317 0.026919  
2001-11-30 09:55:13 51°21.982 3°1.31 19.451665 0.004317 0.026919  
2001-11-30 09:55:19 51°22.003 3°1.324 19.390547 0.004317 0.02692  
2001-11-30 09:55:22 51°22.013 3°1.334 19.39169 0.004317 0.026919  
2001-11-30 09:55:29 51°22.038 3°1.35 19.925494 0.004317 0.026919  
2001-11-30 09:55:32 51°22.047 3°1.36 19.526052 0.004317 0.026919  
2001-11-30 09:55:39 51°22.072 3°1.375 19.226432 0.004317 0.02692  
2001-11-30 09:55:43 51°22.085 3°1.388 19.226432 0.004317 0.02692  
2001-11-30 09:55:49 51°22.106 3°1.401 19.459657 0.004317 0.026919  
2001-11-30 09:55:54 51°22.122 3°1.417 19.159958 0.004317 0.026919  
2001-11-30 09:55:59 51°22.14 3°1.428 19.328477 0.004317 0.026919  
2001-11-30 09:56:04 51°22.156 3°1.443 19.060865 0.004317 0.026919  
2001-11-30 09:56:09 51°22.174 3°1.454 18.824699 0.004317 0.026919  
2001-11-30 09:56:13 51°22.188 3°1.467 18.824699 0.004317 0.026919  
2001-11-30 09:56:19 51°22.208 3°1.48 19.295214 0.004317 0.026919  
2001-11-30 09:56:23 51°22.221 3°1.493 19.261118 0.004317 0.026919  
2001-11-30 09:56:28 51°22.239 3°1.505 19.328804 0.004317 0.026919  
2001-11-30 09:56:33 51°22.255 3°1.52 19.466426 0.004317 0.026919  
2001-11-30 09:56:39 51°22.276 3°1.534 19.268151 0.004317 0.026919  
2001-11-30 09:56:43 51°22.29 3°1.547 19.268151 0.004317 0.026919  
2001-11-30 09:56:47 51°22.303 3°1.557 19.635268 0.004317 0.026919  
2001-11-30 09:56:54 51°22.326 3°1.576 19.801716 0.004317 0.026919  
2001-11-30 09:56:59 51°22.344 3°1.588 19.199834 0.004317 0.026919  
2001-11-30 09:57:03 51°22.357 3°1.599 19.000636 0.004317 0.026919  
2001-11-30 09:57:09 51°22.378 3°1.613 19.506087 0.004317 0.026919  
2001-11-30 09:57:14 51°22.395 3°1.627 19.506087 0.004317 0.026919  
2001-11-30 09:57:19 51°22.412 3°1.639 19.238582 0.004317 0.026919  
2001-11-30 09:57:24 51°22.429 3°1.652 19.138987 0.004317 0.026919  
2001-11-30 09:57:28 51°22.443 3°1.661 19.238828 0.004317 0.026919  
2001-11-30 09:57:34 51°22.463 3°1.677 19.20806 0.004317 0.026919  
2001-11-30 09:57:39 51°22.481 3°1.688 19.410463 0.004317 0.026919  
2001-11-30 09:57:44 51°22.498 3°1.702 19.410463 0.004317 0.026919  
2001-11-30 09:57:48 51°22.512 3°1.712 19.243777 0.004317 0.026919  
2001-11-30 09:57:53 51°22.529 3°1.725 19.244023 0.004317 0.026919  
2001-11-30 09:57:59 51°22.55 3°1.739 19.47723 0.004317 0.026919  
2001-11-30 09:58:03 51°22.564 3°1.75 19.145705 0.004317 0.026919  
2001-11-30 09:58:09 51°22.585 3°1.764 19.146483 0.004317 0.026919  
2001-11-30 09:58:13 51°22.599 3°1.775 19.146483 0.004317 0.026919  
2001-11-30 09:58:19 51°22.62 3°1.79 19.111659 0.004317 0.026919  
2001-11-30 09:58:24 51°22.637 3°1.804 19.113339 0.004317 0.026919  
2001-11-30 09:58:28 51°22.65 3°1.814 19.07985 0.004317 0.026919  
2001-11-30 09:58:33 51°22.668 3°1.826 19.47935 0.004317 0.026919  
2001-11-30 09:58:38 51°22.685 3°1.839 19.413564 0.004317 0.026919  
2001-11-30 09:58:43 51°22.703 3°1.851 19.413564 0.004317 0.026919  
2001-11-30 09:58:48 51°22.719 3°1.865 19.117273 0.004317 0.026919  
2001-11-30 09:58:52 51°22.734 3°1.873 19.464754 0.004317 0.026919  
2001-11-30 09:58:58 51°22.753 3°1.89 19.619362 0.004317 0.026919  
2001-11-30 09:59:03 51°22.771 3°1.902 19.320429 0.004317 0.026919  
2001-11-30 09:59:08 51°22.788 3°1.917 19.350575 0.004317 0.026919  
2001-11-30 09:59:14 51°22.809 3°1.931 19.350575 0.004317 0.026919  
2001-11-30 09:59:18 51°22.822 3°1.943 18.982122 0.004317 0.026919  
2001-11-30 09:59:23 51°22.839 3°1.955 19.589087 0.004317 0.026919  
2001-11-30 09:59:28 51°22.856 3°1.969 19.289206 0.004317 0.026919  
2001-11-30 09:59:33 51°22.873 3°1.981 19.357804 0.004317 0.026919  
2001-11-30 09:59:39 51°22.893 3°1.998 19.723721 0.004317 0.026919  
2001-11-30 09:59:43 51°22.908 3°2.007 19.723721 0.004317 0.026919  
2001-11-30 09:59:48 51°22.924 3°2.023 19.290228 0.004317 0.026919  
2001-11-30 09:59:52 51°22.938 3°2.031 18.990333 0.004317 0.026919  
2001-11-30 09:59:58 51°22.958 3°2.049 19.660563 0.004317 0.026919  
2001-11-30 10:00:03 51°22.976 3°2.06 18.856047 0.004317 0.026919  
2001-11-30 10:00:09 51°22.996 3°2.078 19.445221 0.004317 0.026919  
2001-11-30 10:00:13 51°23.01 3°2.086 19.445221 0.004317 0.026919  
2001-11-30 10:00:18 51°23.026 3°2.102 19.327578 0.004317 0.026919  
2001-11-30 10:00:22 51°23.04 3°2.111 19.094035 0.004317 0.026919  
2001-11-30 10:00:29 51°23.064 3°2.132 19.497814 0.004317 0.026919  
2001-11-30 10:00:33 51°23.078 3°2.14 19.499363 0.004317 0.026919  
2001-11-30 10:00:39 51°23.098 3°2.158 18.994849 0.004317 0.026919  
2001-11-30 10:00:43 51°23.113 3°2.167 18.994849 0.004317 0.026919  
2001-11-30 10:00:48 51°23.13 3°2.182 19.031127 0.004317 0.026919  
2001-11-30 10:00:54 51°23.151 3°2.195 19.3315 0.004317 0.026919  
2001-11-30 10:00:57 51°23.161 3°2.205 19.267865 0.004317 0.026919  
2001-11-30 10:01:03 51°23.183 3°2.219 19.601215 0.004317 0.026919  
2001-11-30 10:01:08 51°23.2 3°2.234 19.703732 0.004317 0.026919  
2001-11-30 10:01:13 51°23.217 3°2.246 19.703732 0.004317 0.026919  
2001-11-30 10:01:19 51°23.238 3°2.264 19.472093 0.004317 0.026919  
2001-11-30 10:01:23 51°23.252 3°2.273 19.53591 0.004317 0.026919  
2001-11-30 10:01:29 51°23.272 3°2.291 19.103134 0.004317 0.026919  
2001-11-30 10:01:34 51°23.29 3°2.303 19.103134 0.004317 0.026919  
2001-11-30 10:01:38 51°23.303 3°2.316 19.037404 0.004317 0.026919  
2001-11-30 10:01:42 51°23.317 3°2.327 19.037404 0.004317 0.026919  
2001-11-30 10:01:49 51°23.341 3°2.347 19.373851 0.004317 0.026919  
2001-11-30 10:01:53 51°23.355 3°2.357 19.472134 0.004317 0.026919  
2001-11-30 10:01:59 51°23.375 3°2.375 19.206341 0.004317 0.026919  
2001-11-30 10:02:03 51°23.389 3°2.385 19.37087 0.004317 0.026919  
2001-11-30 10:02:08 51°23.406 3°2.398 19.443386 0.004317 0.026919  
2001-11-30 10:02:14 51°23.427 3°2.415 19.443386 0.004317 0.026919  
2001-11-30 10:02:19 51°23.444 3°2.429 19.67646 0.004317 0.026919  
2001-11-30 10:02:22 51°23.454 3°2.439 19.076447 0.004317 0.026919  
2001-11-30 10:02:28 51°23.475 3°2.453 19.311929 0.004317 0.026919  
2001-11-30 10:02:32 51°23.489 3°2.466 19.576916 0.004317 0.026919  
2001-11-30 10:02:38 51°23.51 3°2.48 19.31291 0.004317 0.026919  
2001-11-30 10:02:43 51°23.527 3°2.495 19.31291 0.004317 0.026919  
2001-11-30 10:02:47 51°23.541 3°2.504 19.179203 0.004317 0.026919  
2001-11-30 10:02:53 51°23.561 3°2.523 19.41385 0.004317 0.026919  
2001-11-30 10:02:59 51°23.582 3°2.537 19.34886 0.004317 0.026919  
2001-11-30 10:03:03 51°23.595 3°2.55 19.713687 0.004317 0.026919  
2001-11-30 10:03:08 51°23.613 3°2.562 19.38222 0.004317 0.026919  
2001-11-30 10:03:13 51°23.63 3°2.579 19.38222 0.004317 0.026919  
2001-11-30 10:03:19 51°23.651 3°2.593 19.712996 0.004317 0.026919  
2001-11-30 10:03:23 51°23.664 3°2.606 19.383975 0.004317 0.026919  
2001-11-30 10:03:29 51°23.686 3°2.62 19.552771 0.004317 0.026919  
2001-11-30 10:03:34 51°23.703 3°2.636 19.216653 0.004317 0.026919  
2001-11-30 10:03:39 51°23.721 3°2.648 19.65178 0.004317 0.026919  
2001-11-30 10:03:43 51°23.734 3°2.661 19.65178 0.004317 0.026919  
2001-11-30 10:03:47 51°23.748 3°2.67 19.484282 0.004317 0.026919  
2001-11-30 10:03:53 51°23.769 3°2.688 19.486932 0.004317 0.026919  
2001-11-30 10:03:59 51°23.79 3°2.703 19.820705 0.004317 0.026919  
2001-11-30 10:04:03 51°23.803 3°2.716 19.388506 0.004317 0.026919  
2001-11-30 10:04:09 51°23.825 3°2.73 19.791409 0.004317 0.026919  
2001-11-30 10:04:14 51°23.841 3°2.747 19.791409 0.004317 0.026919  
2001-11-30 10:04:19 51°23.859 3°2.758 19.489133 0.004317 0.026919  
2001-11-30 10:04:23 51°23.872 3°2.772 19.660889 0.004317 0.026919  
2001-11-30 10:04:28 51°23.89 3°2.785 19.392914 0.004317 0.026919  
2001-11-30 10:04:32 51°23.904 3°2.797 19.460351 0.004317 0.026919  
2001-11-30 10:04:38 51°23.924 3°2.813 19.362173 0.004317 0.026919  
2001-11-30 10:04:44 51°23.945 3°2.832 19.362173 0.004317 0.026919  
2001-11-30 10:04:49 51°23.963 3°2.843 19.593564 0.004317 0.026919  
2001-11-30 10:04:53 51°23.976 3°2.856 19.295991 0.004317 0.026919  
2001-11-30 10:04:58 51°23.994 3°2.869 19.42662 0.004317 0.026919  
2001-11-30 10:05:03 51°24.011 3°2.884 19.163684 0.004317 0.026919  
2001-11-30 10:05:07 51°24.025 3°2.896 19.698815 0.004317 0.026919  
2001-11-30 10:05:13 51°24.046 3°2.913 19.698815 0.004317 0.026919  
2001-11-30 10:05:18 51°24.063 3°2.926 18.995547 0.004317 0.026919  
2001-11-30 10:05:22 51°24.077 3°2.937 19.634455 0.004317 0.026919  
2001-11-30 10:05:27 51°24.094 3°2.952 19.532651 0.004317 0.026919  
2001-11-30 10:05:31 51°24.109 3°2.963 20.036518 0.004317 0.026919  
2001-11-30 10:05:38 51°24.132 3°2.984 19.801595 0.004317 0.026919  
2001-11-30 10:05:44 51°24.153 3°3.002 19.801595 0.004317 0.026919  
2001-11-30 10:05:49 51°24.171 3°3.015 19.969229 0.004317 0.026919  
2001-11-30 10:05:54 51°24.188 3°3.031 19.739522 0.004317 0.026919  
2001-11-30 10:05:58 51°24.202 3°3.041 20.263041 0.004317 0.026919  
2001-11-30 10:06:03 51°24.219 3°3.055 19.270891 0.004317 0.026919  
2001-11-30 10:06:07 51°24.233 3°3.066 19.63779 0.004317 0.026919  
2001-11-30 10:06:14 51°24.258 3°3.084 19.63779 0.004317 0.026919  
2001-11-30 10:06:19 51°24.276 3°3.096 19.27179 0.004317 0.026919  
2001-11-30 10:06:23 51°24.29 3°3.105 19.175886 0.004317 0.026919  
2001-11-30 10:06:27 51°24.304 3°3.117 19.539616 0.004317 0.026919  
2001-11-30 10:06:33 51°24.326 3°3.129 19.208796 0.004317 0.026919  
2001-11-30 10:06:37 51°24.339 3°3.141 19.607034 0.004317 0.026919  
2001-11-30 10:06:44 51°24.365 3°3.155 19.607034 0.004317 0.026919  
2001-11-30 10:06:48 51°24.379 3°3.167 19.644582 0.004317 0.026919  
2001-11-30 10:06:54 51°24.401 3°3.179 19.242673 0.004317 0.026919  
2001-11-30 10:06:59 51°24.418 3°3.193 19.912733 0.004317 0.026919  
2001-11-30 10:07:03 51°24.433 3°3.2 19.447546 0.004317 0.026919  
2001-11-30 10:07:08 51°24.451 3°3.214 19.647266 0.004317 0.026919  
2001-11-30 10:07:13 51°24.469 3°3.224 19.647266 0.004317 0.026919  
2001-11-30 10:07:19 51°24.489 3°3.242 19.916461 0.004317 0.026919  
2001-11-30 10:07:23 51°24.504 3°3.25 19.876909 0.004317 0.026919  
2001-11-30 10:07:28 51°24.522 3°3.263 19.551427 0.004317 0.026919  
2001-11-30 10:07:34 51°24.543 3°3.278 19.185425 0.004317 0.026919  
2001-11-30 10:07:39 51°24.56 3°3.292 19.421113 0.004317 0.026919  
2001-11-30 10:07:43 51°24.574 3°3.303 19.421113 0.004317 0.026919  
2001-11-30 10:07:47 51°24.588 3°3.313 19.519778 0.004317 0.026919  
2001-11-30 10:07:54 51°24.612 3°3.333 19.318794 0.004317 0.026919  
2001-11-30 10:07:59 51°24.63 3°3.347 19.188209 0.004317 0.026919  
2001-11-30 10:08:03 51°24.643 3°3.36 19.24754 0.004317 0.026919  
2001-11-30 10:08:09 51°24.664 3°3.375 19.355966 0.004317 0.026919  
2001-11-30 10:08:13 51°24.678 3°3.387 19.355966 0.004317 0.026919  
2001-11-30 10:08:19 51°24.699 3°3.402 19.453989 0.004317 0.026919  
2001-11-30 10:08:23 51°24.712 3°3.415 19.657839 0.004317 0.026918  
2001-11-30 10:08:29 51°24.734 3°3.429 19.660807 0.004317 0.026918  
2001-11-30 10:08:33 51°24.747 3°3.441 19.088296 0.004317 0.026919  
2001-11-30 10:08:39 51°24.768 3°3.455 19.36103 0.004317 0.026918  
2001-11-30 10:08:44 51°24.785 3°3.47 19.36103 0.004317 0.026918  
2001-11-30 10:08:48 51°24.8 3°3.478 19.522059 0.004317 0.026919  
2001-11-30 10:08:52 51°24.813 3°3.49 19.630509 0.004317 0.026918  
2001-11-30 10:08:59 51°24.838 3°3.506 19.962022 0.004317 0.026919  
2001-11-30 10:09:03 51°24.851 3°3.519 19.462471 0.004317 0.026918  
2001-11-30 10:09:09 51°24.872 3°3.533 19.464958 0.004317 0.026918  
2001-11-30 10:09:14 51°24.889 3°3.549 19.464958 0.004317 0.026918  
2001-11-30 10:09:19 51°24.906 3°3.56 19.36201 0.004317 0.026918  
2001-11-30 10:09:23 51°24.92 3°3.573 19.366542 0.004317 0.026918  
2001-11-30 10:09:27 51°24.933 3°3.583 19.362541 0.004317 0.026919  
2001-11-30 10:09:34 51°24.957 3°3.604 19.468954 0.004317 0.026918  
2001-11-30 10:09:39 51°24.975 3°3.616 18.932837 0.004317 0.026918  
2001-11-30 10:09:44 51°24.991 3°3.632 18.932837 0.004317 0.026918  
2001-11-30 10:09:48 51°25.005 3°3.643 19.032973 0.004317 0.026918  
2001-11-30 10:09:53 51°25.022 3°3.658 19.33775 0.004317 0.026918  
2001-11-30 10:09:58 51°25.039 3°3.672 19.132064 0.004317 0.026918  
2001-11-30 10:10:03 51°25.056 3°3.686 19.038183 0.004317 0.026918  
2001-11-30 10:10:09 51°25.076 3°3.703 19.105101 0.004317 0.026919  
2001-11-30 10:10:14 51°25.093 3°3.717 19.105101 0.004317 0.026919  
2001-11-30 10:10:19 51°25.11 3°3.731 19.473765 0.004317 0.026918  
2001-11-30 10:10:24 51°25.127 3°3.746 19.341467 0.004317 0.026918  
2001-11-30 10:10:29 51°25.144 3°3.759 19.406219 0.004317 0.026918  
2001-11-30 10:10:33 51°25.158 3°3.77 19.312706 0.004317 0.026918  
2001-11-30 10:10:39 51°25.179 3°3.787 19.207896 0.004317 0.026918  
2001-11-30 10:10:43 51°25.192 3°3.798 19.207896 0.004317 0.026918  
2001-11-30 10:10:48 51°25.209 3°3.812 19.310867 0.004317 0.026918  
2001-11-30 10:10:54 51°25.229 3°3.829 19.68085 0.004317 0.026918  
2001-11-30 10:10:59 51°25.246 3°3.843 19.810643 0.004317 0.026918  
2001-11-30 10:11:03 51°25.26 3°3.854 19.549065 0.004317 0.026918  
2001-11-30 10:11:08 51°25.277 3°3.868 19.544137 0.004317 0.026918  
2001-11-30 10:11:13 51°25.294 3°3.88 19.544137 0.004317 0.026918  
2001-11-30 10:11:18 51°25.311 3°3.895 20.047639 0.004317 0.026918  
2001-11-30 10:11:23 51°25.328 3°3.907 19.484812 0.004317 0.026918  
2001-11-30 10:11:28 51°25.344 3°3.922 19.447709 0.004317 0.026918  
2001-11-30 10:11:34 51°25.366 3°3.936 19.853476 0.004317 0.026918  
2001-11-30 10:11:39 51°25.382 3°3.95 19.616433 0.004317 0.026918  
2001-11-30 10:11:43 51°25.397 3°3.958 19.616433 0.004317 0.026918  
2001-11-30 10:11:49 51°25.417 3°3.975 19.822693 0.004317 0.026918  
2001-11-30 10:11:54 51°25.435 3°3.986 19.454112 0.004317 0.026918  
2001-11-30 10:11:59 51°25.451 3°4.001 19.320183 0.004317 0.026918  
2001-11-30 10:12:03 51°25.466 3°4.009 19.624692 0.004317 0.026918  
2001-11-30 10:12:09 51°25.485 3°4.026 19.384424 0.004317 0.026918  
2001-11-30 10:12:14 51°25.503 3°4.037 19.384424 0.004317 0.026918  
2001-11-30 10:12:19 51°25.519 3°4.051 19.461044 0.004317 0.026918  
2001-11-30 10:12:23 51°25.533 3°4.059 19.68837 0.004317 0.026918  
2001-11-30 10:12:29 51°25.553 3°4.077 19.661702 0.004317 0.026918  
2001-11-30 10:12:34 51°25.571 3°4.087 19.763927 0.004317 0.026918  
2001-11-30 10:12:39 51°25.587 3°4.103 19.858179 0.004317 0.026918  
2001-11-30 10:12:43 51°25.602 3°4.11 19.858179 0.004317 0.026918  
2001-11-30 10:12:49 51°25.622 3°4.127 19.397608 0.004317 0.026918  
2001-11-30 10:12:53 51°25.636 3°4.135 19.491008 0.004317 0.026918  
2001-11-30 10:12:58 51°25.653 3°4.149 19.729652 0.004317 0.026918  
2001-11-30 10:13:03 51°25.67 3°4.161 19.864464 0.004317 0.026918  
2001-11-30 10:13:09 51°25.691 3°4.178 20.002092 0.004317 0.026918  
2001-11-30 10:13:14 51°25.707 3°4.19 20.002092 0.004317 0.026918  
2001-11-30 10:13:18 51°25.72 3°4.203 19.56857 0.004317 0.026918  
2001-11-30 10:13:23 51°25.737 3°4.215 19.566005 0.004317 0.026918  
2001-11-30 10:13:29 51°25.757 3°4.234 19.573537 0.004317 0.026918  
2001-11-30 10:13:34 51°25.775 3°4.245 19.90232 0.004317 0.026918  
2001-11-30 10:13:39 51°25.791 3°4.262 19.53591 0.004317 0.026918  
2001-11-30 10:13:44 51°25.808 3°4.274 19.53591 0.004317 0.026918  
2001-11-30 10:13:49 51°25.824 3°4.29 19.742406 0.004317 0.026918  
2001-11-30 10:13:53 51°25.838 3°4.299 19.782114 0.004317 0.026918  
2001-11-30 10:13:59 51°25.857 3°4.318 19.442814 0.004317 0.026918  
2001-11-30 10:14:03 51°25.871 3°4.327 19.803664 0.004317 0.026918  
2001-11-30 10:14:08 51°25.888 3°4.341 19.975665 0.004317 0.026918  
2001-11-30 10:14:14 51°25.908 3°4.357 19.975665 0.004317 0.026918  
2001-11-30 10:14:19 51°25.924 3°4.372 19.479065 0.004317 0.026918  
2001-11-30 10:14:24 51°25.941 3°4.385 20.373495 0.004317 0.026918  
2001-11-30 10:14:29 51°25.957 3°4.402 19.346736 0.004317 0.026918  
2001-11-30 10:14:34 51°25.974 3°4.415 19.943437 0.004317 0.026918  
2001-11-30 10:14:39 51°25.99 3°4.43 19.777081 0.004317 0.026918  
2001-11-30 10:14:43 51°26.004 3°4.44 19.777081 0.004317 0.026918  
2001-11-30 10:14:48 51°26.021 3°4.452 19.979996 0.004317 0.026918  
2001-11-30 10:14:52 51°26.034 3°4.462 19.750041 0.004317 0.026918  
2001-11-30 10:14:59 51°26.058 3°4.481 19.652106 0.004317 0.026918  
2001-11-30 10:15:03 51°26.071 3°4.492 19.186694 0.004317 0.026918  
2001-11-30 10:15:08 51°26.087 3°4.508 20.017386 0.004317 0.026918  
2001-11-30 10:15:11 51°26.097 3°4.518 20.017386 0.004317 0.026918  
2001-11-30 10:15:19 51°26.121 3°4.546 18.954486 0.004317 0.026918  
2001-11-30 10:15:24 51°26.136 3°4.566 19.623715 0.004317 0.026918  
2001-11-30 10:15:29 51°26.149 3°4.587 19.394016 0.004317 0.026918  
2001-11-30 10:15:31 51°26.154 3°4.596 20.027863 0.004317 0.026918  
2001-11-30 10:15:39 51°26.172 3°4.635 19.859396 0.004317 0.026918  
2001-11-30 10:15:43 51°26.179 3°4.657 19.859396 0.004317 0.026918  
2001-11-30 10:15:48 51°26.185 3°4.685 19.160941 0.004317 0.026918  
2001-11-30 10:15:53 51°26.189 3°4.714 19.397363 0.004317 0.026918  
2001-11-30 10:15:59 51°26.19 3°4.75 19.962832 0.004317 0.026918  
2001-11-30 10:16:03 51°26.189 3°4.773 19.434861 0.004317 0.026918  
2001-11-30 10:16:08 51°26.185 3°4.803 18.964918 0.004317 0.026917  
2001-11-30 10:16:14 51°26.18 3°4.838 18.964918 0.004317 0.026917  
2001-11-30 10:16:19 51°26.175 3°4.868 19.29922 0.004317 0.026918  
2001-11-30 10:16:23 51°26.17 3°4.892 19.698936 0.004317 0.026918  
2001-11-30 10:16:29 51°26.164 3°4.928 19.736801 0.004317 0.026918  
2001-11-30 10:16:34 51°26.158 3°4.958 19.439715 0.004317 0.026918  
2001-11-30 10:16:39 51°26.15 3°4.987 19.802731 0.004317 0.026918  
2001-11-30 10:16:43 51°26.143 3°5.01 19.802731 0.004317 0.026918  
2001-11-30 10:16:49 51°26.133 3°5.044 20.003751 0.004317 0.026918  
2001-11-30 10:16:54 51°26.125 3°5.073 19.870099 0.004317 0.026918  
2001-11-30 10:16:59 51°26.116 3°5.102 19.838025 0.004317 0.026918  
2001-11-30 10:17:03 51°26.11 3°5.125 20.070968 0.004317 0.026918  
2001-11-30 10:17:09 51°26.1 3°5.16 19.478249 0.004317 0.026918  
2001-11-30 10:17:14 51°26.092 3°5.19 19.478249 0.004317 0.026918  
2001-11-30 10:17:19 51°26.084 3°5.219 20.338589 0.004317 0.026918  
2001-11-30 10:17:23 51°26.077 3°5.242 19.241037 0.004317 0.026918  
2001-11-30 10:17:29 51°26.067 3°5.277 19.6109 0.004317 0.026918  
2001-11-30 10:17:34 51°26.058 3°5.307 19.950199 0.004317 0.026918  
2001-11-30 10:17:39 51°26.05 3°5.336 19.979713 0.004317 0.026918  
2001-11-30 10:17:43 51°26.044 3°5.359 19.979713 0.004317 0.026918  
2001-11-30 10:17:49 51°26.033 3°5.394 19.718603 0.004317 0.026918  
2001-11-30 10:17:54 51°26.025 3°5.424 20.251269 0.004317 0.026918  
2001-11-30 10:17:59 51°26.016 3°5.453 18.409337 0.004317 0.026918  
2001-11-30 10:18:04 51°26.008 3°5.483 17.933651 0.004317 0.026914  
2001-11-30 10:18:09 51°26 3°5.512 17.924231 0.004317 0.026914  
2001-11-30 10:18:14 51°25.991 3°5.542 17.924231 0.004317 0.026914  
2001-11-30 10:18:19 51°25.983 3°5.571 18.009926 0.004317 0.026914  
2001-11-30 10:18:24 51°25.974 3°5.601 17.985773 0.004317 0.026914  
2001-11-30 10:18:29 51°25.966 3°5.631 18.019459 0.004317 0.026915  
2001-11-30 10:18:34 51°25.957 3°5.66 17.939069 0.004317 0.026916  
2001-11-30 10:18:39 51°25.949 3°5.69 17.947946 0.004317 0.026917  
2001-11-30 10:18:43 51°25.942 3°5.713 17.947946 0.004317 0.026917  
2001-11-30 10:18:49 51°25.933 3°5.749 17.980401 0.004317 0.026916  
2001-11-30 10:18:54 51°25.924 3°5.778 17.923105 0.004317 0.026916  
2001-11-30 10:18:59 51°25.916 3°5.808 17.919687 0.004317 0.026917  
2001-11-30 10:19:03 51°25.91 3°5.832 17.958946 0.004317 0.026917  
2001-11-30 10:19:09 51°25.9 3°5.867 17.929441 0.004317 0.026917  
2001-11-30 10:19:14 51°25.892 3°5.897 17.929441 0.004317 0.026917  
2001-11-30 10:19:19 51°25.883 3°5.926 17.957446 0.004317 0.026918  
2001-11-30 10:19:24 51°25.875 3°5.955 18.031114 0.004317 0.026917  
2001-11-30 10:19:29 51°25.867 3°5.985 17.928108 0.004317 0.026918  
2001-11-30 10:19:34 51°25.859 3°6.015 17.969654 0.004317 0.026918  
2001-11-30 10:19:39 51°25.851 3°6.045 18.00214 0.004317 0.026918  
2001-11-30 10:19:44 51°25.841 3°6.073 18.00214 0.004317 0.026918  
2001-11-30 10:19:47 51°25.836 3°6.09 17.934068 0.004317 0.026918  
2001-11-30 10:19:53 51°25.824 3°6.125 18.03744 0.004317 0.026918  
2001-11-30 10:19:59 51°25.811 3°6.158 17.976277 0.004317 0.026918  
2001-11-30 10:20:03 51°25.802 3°6.179 17.940153 0.004317 0.026918  
2001-11-30 10:20:09 51°25.789 3°6.212 17.939945 0.004317 0.026918  
2001-11-30 10:20:14 51°25.777 3°6.239 17.939945 0.004317 0.026918  
2001-11-30 10:20:19 51°25.766 3°6.266 18.004097 0.004317 0.026918  
2001-11-30 10:20:23 51°25.756 3°6.287 17.945071 0.004317 0.026918  
2001-11-30 10:20:29 51°25.743 3°6.319 17.971237 0.004317 0.026918  
2001-11-30 10:20:34 51°25.731 3°6.346 17.971903 0.004317 0.026918  
2001-11-30 10:20:39 51°25.72 3°6.373 17.946988 0.004317 0.026918  
2001-11-30 10:20:44 51°25.708 3°6.401 17.946988 0.004317 0.026918  
2001-11-30 10:20:47 51°25.702 3°6.417 17.937777 0.004317 0.026918  
2001-11-30 10:20:54 51°25.686 3°6.455 17.942403 0.004317 0.026918  
2001-11-30 10:20:59 51°25.675 3°6.482 17.947321 0.004317 0.026918  
2001-11-30 10:21:03 51°25.666 3°6.504 17.944904 0.004317 0.026918  
2001-11-30 10:21:09 51°25.653 3°6.538 17.956697 0.004317 0.026918  
2001-11-30 10:21:14 51°25.642 3°6.565 17.956697 0.004317 0.026918  
2001-11-30 10:21:19 51°25.632 3°6.593 18.017253 0.004317 0.026918  
2001-11-30 10:21:24 51°25.621 3°6.621 17.951821 0.004317 0.026918  
2001-11-30 10:21:27 51°25.614 3°6.637 18.019001 0.004317 0.026918  
2001-11-30 10:21:34 51°25.599 3°6.676 17.988022 0.004317 0.026918  
2001-11-30 10:21:39 51°25.588 3°6.704 17.987981 0.004317 0.026918  
2001-11-30 10:21:44 51°25.577 3°6.731 17.987981 0.004317 0.026918  
2001-11-30 10:21:49 51°25.566 3°6.759 17.952863 0.004317 0.026918  
2001-11-30 10:21:54 51°25.555 3°6.786 17.961863 0.004317 0.026918  
2001-11-30 10:21:59 51°25.544 3°6.813 17.955613 0.004317 0.026918  
2001-11-30 10:22:03 51°25.535 3°6.835 17.955322 0.004317 0.026918  
2001-11-30 10:22:09 51°25.521 3°6.868 17.965529 0.004317 0.026918  
2001-11-30 10:22:14 51°25.509 3°6.895 17.965529 0.004317 0.026918  
2001-11-30 10:22:19 51°25.498 3°6.922 17.995227 0.004317 0.026918  
2001-11-30 10:22:24 51°25.487 3°6.949 18.034485 0.004317 0.026918  
2001-11-30 10:22:27 51°25.48 3°6.966 18.000266 0.004317 0.026918  
2001-11-30 10:22:34 51°25.465 3°7.004 17.99352 0.004317 0.026918  
2001-11-30 10:22:39 51°25.453 3°7.031 18.101752 0.004317 0.026918  
2001-11-30 10:22:43 51°25.444 3°7.053 18.101752 0.004317 0.026918  
2001-11-30 10:22:49 51°25.43 3°7.086 17.971611 0.004317 0.026918  
2001-11-30 10:22:54 51°25.419 3°7.113 18.069562 0.004317 0.026918  
2001-11-30 10:22:59 51°25.407 3°7.14 18.039147 0.004317 0.026918  
2001-11-30 10:23:04 51°25.396 3°7.167 18.046721 0.004317 0.026917  
2001-11-30 10:23:09 51°25.384 3°7.194 18.001931 0.004317 0.026917  
2001-11-30 10:23:14 51°25.373 3°7.221 18.001931 0.004317 0.026917  
2001-11-30 10:23:19 51°25.362 3°7.249 18.012049 0.004317 0.026917  
2001-11-30 10:23:23 51°25.353 3°7.271 18.007844 0.004317 0.026917  
2001-11-30 10:23:29 51°25.34 3°7.304 18.005595 0.004317 0.026917  
2001-11-30 10:23:34 51°25.328 3°7.331 17.980401 0.004317 0.026918  
2001-11-30 10:23:39 51°25.317 3°7.358 17.973944 0.004317 0.026918  
2001-11-30 10:23:43 51°25.308 3°7.38 17.973944 0.004317 0.026918  
2001-11-30 10:23:49 51°25.294 3°7.412 18.009176 0.004317 0.026918  
2001-11-30 10:23:54 51°25.283 3°7.439 18.044557 0.004317 0.026918  
2001-11-30 10:23:59 51°25.272 3°7.467 18.016587 0.004317 0.026917  
2001-11-30 10:24:03 51°25.262 3°7.489 18.015171 0.004317 0.026917  
2001-11-30 10:24:09 51°25.249 3°7.522 18.020583 0.004317 0.026918  
2001-11-30 10:24:14 51°25.238 3°7.549 18.020583 0.004317 0.026918  
2001-11-30 10:24:19 51°25.227 3°7.577 17.986107 0.004317 0.026918  
2001-11-30 10:24:24 51°25.216 3°7.604 17.986232 0.004317 0.026918  
2001-11-30 10:24:29 51°25.204 3°7.631 17.985024 0.004317 0.026918  
2001-11-30 10:24:34 51°25.193 3°7.658 18.066109 0.004317 0.026918  
2001-11-30 10:24:39 51°25.182 3°7.686 18.02204 0.004317 0.026918  
2001-11-30 10:24:43 51°25.173 3°7.708 18.02204 0.004317 0.026918  
2001-11-30 10:24:49 51°25.159 3°7.741 17.989397 0.004317 0.026918  
2001-11-30 10:24:54 51°25.149 3°7.769 17.993645 0.004317 0.026918  
2001-11-30 10:24:59 51°25.137 3°7.796 18.003097 0.004317 0.026917  
2001-11-30 10:25:04 51°25.127 3°7.824 18.023247 0.004317 0.026918  
2001-11-30 10:25:09 51°25.116 3°7.852 18.007011 0.004317 0.026917  
2001-11-30 10:25:14 51°25.106 3°7.88 18.007011 0.004317 0.026917  
2001-11-30 10:25:19 51°25.095 3°7.908 18.072931 0.004317 0.026917  
2001-11-30 10:25:23 51°25.087 3°7.931 18.002056 0.004317 0.026918  
2001-11-30 10:25:29 51°25.074 3°7.965 18.007594 0.004317 0.026917  
2001-11-30 10:25:34 51°25.063 3°7.993 18.036317 0.004317 0.026918  
2001-11-30 10:25:39 51°25.053 3°8.021 18.045472 0.004317 0.026918  
2001-11-30 10:25:43 51°25.044 3°8.044 18.045472 0.004317 0.026918  
2001-11-30 10:25:49 51°25.032 3°8.078 18.007178 0.004317 0.026918  
2001-11-30 10:25:54 51°25.021 3°8.106 18.044182 0.004317 0.026918  
2001-11-30 10:25:59 51°25.011 3°8.135 18.04156 0.004317 0.026918  
2001-11-30 10:26:04 51°24.999 3°8.163 18.051797 0.004317 0.026918  
2001-11-30 10:26:09 51°24.989 3°8.192 18.0857 0.004317 0.026918  
2001-11-30 10:26:14 51°24.978 3°8.22 18.0857 0.004317 0.026918  
2001-11-30 10:26:19 51°24.968 3°8.249 18.013756 0.004317 0.026917  
2001-11-30 10:26:23 51°24.959 3°8.272 18.017877 0.004317 0.026918  
2001-11-30 10:26:27 51°24.95 3°8.295 18.01692 0.004317 0.026917  
2001-11-30 10:26:34 51°24.935 3°8.335 18.016462 0.004317 0.026918  
2001-11-30 10:26:39 51°24.925 3°8.364 18.049467 0.004317 0.026918  
2001-11-30 10:26:44 51°24.914 3°8.393 18.049467 0.004317 0.026918  
2001-11-30 10:26:49 51°24.904 3°8.421 18.049675 0.004317 0.026918  
2001-11-30 10:26:54 51°24.893 3°8.45 18.020542 0.004317 0.026918  
2001-11-30 10:26:59 51°24.882 3°8.48 18.012465 0.004317 0.026918  
2001-11-30 10:27:03 51°24.874 3°8.503 18.091938 0.004317 0.026918  
2001-11-30 10:27:09 51°24.862 3°8.538 18.115305 0.004317 0.026918  
2001-11-30 10:27:14 51°24.851 3°8.566 18.115305 0.004317 0.026918  
2001-11-30 10:27:19 51°24.841 3°8.596 18.020208 0.004317 0.026918  
2001-11-30 10:27:24 51°24.831 3°8.625 18.058829 0.004317 0.026918  
2001-11-30 10:27:29 51°24.82 3°8.654 18.09514 0.004317 0.026918  
2001-11-30 10:27:34 51°24.811 3°8.684 18.09934 0.004317 0.026918  
2001-11-30 10:27:39 51°24.801 3°8.713 18.062656 0.004317 0.026918  
2001-11-30 10:27:44 51°24.792 3°8.743 18.062656 0.004317 0.026918  
2001-11-30 10:27:47 51°24.786 3°8.761 18.03024 0.004317 0.026918  
2001-11-30 10:27:54 51°24.772 3°8.802 18.071517 0.004317 0.026918  
2001-11-30 10:27:59 51°24.762 3°8.832 18.06769 0.004317 0.026918  
2001-11-30 10:28:03 51°24.754 3°8.855 18.076924 0.004317 0.026918  
2001-11-30 10:28:09 51°24.742 3°8.891 18.077507 0.004317 0.026918  
2001-11-30 10:28:14 51°24.732 3°8.919 18.077507 0.004317 0.026918  
2001-11-30 10:28:19 51°24.723 3°8.949 18.038273 0.004317 0.026918  
2001-11-30 10:28:23 51°24.714 3°8.973 18.051173 0.004317 0.026918  
2001-11-30 10:28:29 51°24.702 3°9.009 18.045222 0.004317 0.026918  
2001-11-30 10:28:34 51°24.692 3°9.038 18.152501 0.004317 0.026918  
2001-11-30 10:28:39 51°24.682 3°9.068 18.085867 0.004317 0.026918  
2001-11-30 10:28:44 51°24.672 3°9.097 18.085867 0.004317 0.026918  
2001-11-30 10:28:47 51°24.666 3°9.115 18.049217 0.004317 0.026918  
2001-11-30 10:28:54 51°24.653 3°9.157 18.120044 0.004317 0.026918  
2001-11-30 10:28:59 51°24.642 3°9.187 18.060867 0.004317 0.026918  
2001-11-30 10:29:04 51°24.633 3°9.217 18.093518 0.004317 0.026918  
2001-11-30 10:29:09 51°24.623 3°9.246 18.096346 0.004317 0.026918  
2001-11-30 10:29:14 51°24.614 3°9.277 18.096346 0.004317 0.026918  
2001-11-30 10:29:19 51°24.603 3°9.307 18.069562 0.004317 0.026918  
2001-11-30 10:29:24 51°24.594 3°9.336 18.064071 0.004317 0.026918  
2001-11-30 10:29:27 51°24.588 3°9.354 18.132347 0.004317 0.026918  
2001-11-30 10:29:34 51°24.577 3°9.397 18.062947 0.004317 0.026917  
2001-11-30 10:29:39 51°24.57 3°9.429 18.049176 0.004317 0.026918  
2001-11-30 10:29:44 51°24.564 3°9.462 18.049176 0.004317 0.026918  
2001-11-30 10:29:49 51°24.561 3°9.494 18.05991 0.004317 0.026917  
2001-11-30 10:29:54 51°24.558 3°9.528 18.063155 0.004317 0.026917  
2001-11-30 10:29:59 51°24.558 3°9.561 18.264924 0.004317 0.026917  
2001-11-30 10:30:03 51°24.558 3°9.588 18.070019 0.004317 0.026918  
2001-11-30 10:30:09 51°24.56 3°9.628 18.074512 0.004317 0.026918  
2001-11-30 10:30:14 51°24.562 3°9.661 18.074512 0.004317 0.026918  
2001-11-30 10:30:19 51°24.564 3°9.695 18.083912 0.004317 0.026918  
2001-11-30 10:30:24 51°24.564 3°9.729 18.08412 0.004317 0.026918  
2001-11-30 10:30:29 51°24.566 3°9.762 18.077091 0.004317 0.026917  
2001-11-30 10:30:34 51°24.567 3°9.796 18.115929 0.004317 0.026918  
2001-11-30 10:30:39 51°24.568 3°9.83 18.083163 0.004317 0.026918  
2001-11-30 10:30:44 51°24.57 3°9.864 18.083163 0.004317 0.026918  
2001-11-30 10:30:47 51°24.571 3°9.885 18.081791 0.004317 0.026918  
2001-11-30 10:30:53 51°24.573 3°9.925 18.088611 0.004317 0.026918  
2001-11-30 10:30:59 51°24.576 3°9.966 18.089734 0.004317 0.026918  
2001-11-30 10:31:03 51°24.577 3°9.993 18.199103 0.004317 0.026918  
2001-11-30 10:31:09 51°24.58 3°10.034 18.197152 0.004317 0.026918  
2001-11-30 10:31:14 51°24.583 3°10.068 18.197152 0.004317 0.026918  
2001-11-30 10:31:19 51°24.586 3°10.101 18.098966 0.004317 0.026917  
2001-11-30 10:31:23 51°24.589 3°10.128 18.102791 0.004317 0.026917  
2001-11-30 10:31:29 51°24.593 3°10.168 18.104787 0.004317 0.026917  
2001-11-30 10:31:34 51°24.596 3°10.202 18.144191 0.004317 0.026917  
2001-11-30 10:31:39 51°24.599 3°10.236 18.135215 0.004317 0.026917  
2001-11-30 10:31:44 51°24.604 3°10.269 18.135215 0.004317 0.026917  
2001-11-30 10:31:47 51°24.607 3°10.288 18.134384 0.004317 0.026918  
2001-11-30 10:31:54 51°24.616 3°10.333 18.09959 0.004317 0.026918  
2001-11-30 10:31:59 51°24.623 3°10.364 18.112104 0.004317 0.026918  
2001-11-30 10:32:04 51°24.63 3°10.396 18.148346 0.004317 0.026918  
2001-11-30 10:32:09 51°24.638 3°10.427 18.152709 0.004317 0.026917  
2001-11-30 10:32:14 51°24.646 3°10.458 18.152709 0.004317 0.026917  
2001-11-30 10:32:19 51°24.654 3°10.49 18.254429 0.004317 0.026917  
2001-11-30 10:32:23 51°24.661 3°10.514 18.151338 0.004317 0.026917  
2001-11-30 10:32:29 51°24.672 3°10.551 18.153125 0.004317 0.026917  
2001-11-30 10:32:33 51°24.679 3°10.574 18.116095 0.004317 0.026917  
2001-11-30 10:32:39 51°24.692 3°10.609 18.164176 0.004317 0.026917  
2001-11-30 10:32:43 51°24.7 3°10.632 18.164176 0.004317 0.026917  
2001-11-30 10:32:49 51°24.714 3°10.666 18.130394 0.004317 0.026917  
2001-11-30 10:32:54 51°24.725 3°10.694 18.168994 0.004317 0.026917  
2001-11-30 10:32:59 51°24.737 3°10.722 18.138041 0.004317 0.026917  
2001-11-30 10:33:04 51°24.749 3°10.749 18.132513 0.004317 0.026917  
2001-11-30 10:33:07 51°24.756 3°10.764 18.136462 0.004317 0.026917  
2001-11-30 10:33:14 51°24.775 3°10.801 18.136462 0.004317 0.026917  
2001-11-30 10:33:19 51°24.788 3°10.825 18.137376 0.004317 0.026917  
2001-11-30 10:33:24 51°24.802 3°10.85 18.142196 0.004317 0.026917  
2001-11-30 10:33:29 51°24.817 3°10.872 18.144814 0.004317 0.026917  
2001-11-30 10:33:34 51°24.832 3°10.895 18.181538 0.004317 0.026917  
2001-11-30 10:33:39 51°24.847 3°10.918 18.217578 0.004317 0.026917  
2001-11-30 10:33:43 51°24.859 3°10.934 18.217578 0.004317 0.026917  
2001-11-30 10:33:49 51°24.878 3°10.957 18.178631 0.004317 0.026917  
2001-11-30 10:33:54 51°24.895 3°10.97 18.152252 0.004317 0.026918  
2001-11-30 10:33:59 51°24.913 3°10.98 18.125365 0.004317 0.026918  
2001-11-30 10:34:04 51°24.93 3°10.985 18.114889 0.004317 0.026918  
2001-11-30 10:34:09 51°24.948 3°10.986 18.116469 0.004317 0.026918  
2001-11-30 10:34:14 51°24.965 3°10.983 18.116469 0.004317 0.026918  
2001-11-30 10:34:19 51°24.981 3°10.977 18.118423 0.004317 0.026918  
2001-11-30 10:34:23 51°24.993 3°10.97 18.201013 0.004317 0.026918  
2001-11-30 10:34:27 51°25.004 3°10.96 18.151961 0.004317 0.026918  
2001-11-30 10:34:33 51°25.021 3°10.946 18.145853 0.004317 0.026918  
2001-11-30 10:34:39 51°25.037 3°10.928 18.156324 0.004317 0.026918  
2001-11-30 10:34:43 51°25.047 3°10.915 18.156324 0.004317 0.026918  
2001-11-30 10:34:49 51°25.061 3°10.894 18.153083 0.004317 0.026918  
2001-11-30 10:34:54 51°25.072 3°10.875 18.230071 0.004317 0.026918  
2001-11-30 10:34:59 51°25.083 3°10.854 18.201138 0.004317 0.026918  
2001-11-30 10:35:03 51°25.09 3°10.838 18.273179 0.004317 0.026918  
2001-11-30 10:35:09 51°25.102 3°10.813 18.23584 0.004317 0.026918  
2001-11-30 10:35:14 51°25.111 3°10.791 18.23584 0.004317 0.026918  
2001-11-30 10:35:19 51°25.119 3°10.769 18.236753 0.004317 0.026918  
2001-11-30 10:35:24 51°25.128 3°10.746 18.209856 0.004317 0.026917  
2001-11-30 10:35:27 51°25.133 3°10.733 18.209275 0.004317 0.026917  
2001-11-30 10:35:34 51°25.144 3°10.701 18.213593 0.004317 0.026917  
2001-11-30 10:35:39 51°25.153 3°10.679 18.223596 0.004317 0.026917  
2001-11-30 10:35:44 51°25.162 3°10.657 18.223596 0.004317 0.026917  
2001-11-30 10:35:49 51°25.172 3°10.636 18.223015 0.004317 0.026917  
2001-11-30 10:35:54 51°25.182 3°10.615 18.190051 0.004317 0.026917  
2001-11-30 10:35:59 51°25.192 3°10.594 18.192958 0.004317 0.026917  
2001-11-30 10:36:03 51°25.201 3°10.578 18.293333 0.004317 0.026917  
2001-11-30 10:36:09 51°25.213 3°10.553 18.225713 0.004317 0.026917  
2001-11-30 10:36:14 51°25.224 3°10.532 18.225713 0.004317 0.026917  
2001-11-30 10:36:19 51°25.235 3°10.512 18.19574 0.004317 0.026917  
2001-11-30 10:36:24 51°25.245 3°10.491 18.230652 0.004317 0.026917  
2001-11-30 10:36:29 51°25.256 3°10.471 18.20064 0.004317 0.026917  
2001-11-30 10:36:34 51°25.267 3°10.451 18.233059 0.004317 0.026917  
2001-11-30 10:36:39 51°25.278 3°10.43 18.205124 0.004317 0.026917  
2001-11-30 10:36:43 51°25.286 3°10.413 18.205124 0.004317 0.026917  
2001-11-30 10:36:49 51°25.299 3°10.389 18.307388 0.004317 0.026917  
2001-11-30 10:36:54 51°25.309 3°10.368 18.205373 0.004317 0.026917  
2001-11-30 10:36:59 51°25.32 3°10.347 18.210396 0.004317 0.026917  
2001-11-30 10:37:04 51°25.33 3°10.326 18.248579 0.004317 0.026917  
2001-11-30 10:37:07 51°25.336 3°10.314 18.214132 0.004317 0.026917  
2001-11-30 10:37:14 51°25.351 3°10.286 18.214132 0.004317 0.026917  
2001-11-30 10:37:19 51°25.362 3°10.265 18.254138 0.004317 0.026917  
2001-11-30 10:37:24 51°25.372 3°10.245 18.218657 0.004317 0.026917  
2001-11-30 10:37:29 51°25.383 3°10.224 18.221646 0.004317 0.026917  
2001-11-30 10:37:34 51°25.393 3°10.204 18.227705 0.004317 0.026917  
2001-11-30 10:37:39 51°25.404 3°10.183 18.226668 0.004317 0.026917  
2001-11-30 10:37:44 51°25.414 3°10.163 18.226668 0.004317 0.026917  
2001-11-30 10:37:49 51°25.425 3°10.142 18.266667 0.004317 0.026917  
2001-11-30 10:37:54 51°25.435 3°10.122 18.269238 0.004317 0.026917  
2001-11-30 10:37:59 51°25.445 3°10.102 18.233889 0.004317 0.026917  
2001-11-30 10:38:03 51°25.454 3°10.086 18.242604 0.004317 0.026917  
2001-11-30 10:38:09 51°25.467 3°10.061 18.340794 0.004317 0.026917  
2001-11-30 10:38:14 51°25.478 3°10.041 18.340794 0.004317 0.026917  
2001-11-30 10:38:19 51°25.487 3°10.02 18.278529 0.004317 0.026917  
2001-11-30 10:38:23 51°25.496 3°10.005 18.25111 0.004317 0.026917  
2001-11-30 10:38:27 51°25.505 3°9.988 18.281598 0.004317 0.026917  
2001-11-30 10:38:34 51°25.52 3°9.96 18.254553 0.004317 0.026917  
2001-11-30 10:38:39 51°25.53 3°9.939 18.252479 0.004317 0.026917  
2001-11-30 10:38:44 51°25.54 3°9.92 18.252479 0.004317 0.026917  
2001-11-30 10:38:49 51°25.55 3°9.899 18.284916 0.004317 0.026917  
2001-11-30 10:38:54 51°25.561 3°9.879 18.295531 0.004317 0.026917  
2001-11-30 10:38:59 51°25.572 3°9.858 18.255881 0.004317 0.026917  
2001-11-30 10:39:03 51°25.58 3°9.843 18.296568 0.004317 0.026917  
2001-11-30 10:39:09 51°25.593 3°9.818 18.299428 0.004317 0.026917  
2001-11-30 10:39:14 51°25.604 3°9.798 18.299428 0.004317 0.026917  
2001-11-30 10:39:19 51°25.614 3°9.778 18.298143 0.004317 0.026917  
2001-11-30 10:39:23 51°25.623 3°9.762 18.267413 0.004317 0.026917  
2001-11-30 10:39:29 51°25.636 3°9.737 18.307223 0.004317 0.026917  
2001-11-30 10:39:33 51°25.644 3°9.721 18.2721 0.004317 0.026917  
2001-11-30 10:39:39 51°25.657 3°9.696 18.27716 0.004317 0.026917  
2001-11-30 10:39:43 51°25.665 3°9.68 18.27716 0.004317 0.026917  
2001-11-30 10:39:49 51°25.678 3°9.655 18.282801 0.004317 0.026917  
2001-11-30 10:39:54 51°25.688 3°9.635 18.31228 0.004317 0.026917  
2001-11-30 10:39:59 51°25.699 3°9.615 18.286118 0.004317 0.026917  
2001-11-30 10:40:03 51°25.708 3°9.599 18.284211 0.004317 0.026917  
2001-11-30 10:40:09 51°25.72 3°9.574 18.288606 0.004317 0.026917  
2001-11-30 10:40:14 51°25.731 3°9.554 18.288606 0.004317 0.026917  
2001-11-30 10:40:19 51°25.742 3°9.534 18.291385 0.004317 0.026917  
2001-11-30 10:40:24 51°25.752 3°9.513 18.356248 0.004317 0.026917  
2001-11-30 10:40:27 51°25.759 3°9.501 18.297438 0.004317 0.026917  
2001-11-30 10:40:34 51°25.774 3°9.473 18.295033 0.004317 0.026917  
2001-11-30 10:40:39 51°25.785 3°9.453 18.299926 0.004317 0.026917  
2001-11-30 10:40:44 51°25.795 3°9.432 18.299926 0.004317 0.026917  
2001-11-30 10:40:49 51°25.806 3°9.412 18.301584 0.004317 0.026917  
2001-11-30 10:40:54 51°25.817 3°9.391 18.306476 0.004317 0.026917  
2001-11-30 10:40:59 51°25.827 3°9.371 18.308881 0.004317 0.026917  
2001-11-30 10:41:03 51°25.836 3°9.354 18.310166 0.004317 0.026917  
2001-11-30 10:41:09 51°25.849 3°9.33 18.347051 0.004317 0.026917  
2001-11-30 10:41:14 51°25.86 3°9.31 18.347051 0.004317 0.026917  
2001-11-30 10:41:19 51°25.871 3°9.289 18.348708 0.004317 0.026917  
2001-11-30 10:41:24 51°25.882 3°9.269 18.31999 0.004317 0.026917  
2001-11-30 10:41:29 51°25.892 3°9.248 18.322187 0.004317 0.026917  
2001-11-30 10:41:34 51°25.904 3°9.228 18.321441 0.004317 0.026917  
2001-11-30 10:41:39 51°25.914 3°9.207 18.361012 0.004317 0.026917  
2001-11-30 10:41:43 51°25.923 3°9.191 18.361012 0.004317 0.026917  
2001-11-30 10:41:49 51°25.936 3°9.167 18.329315 0.004317 0.026917  
2001-11-30 10:41:54 51°25.947 3°9.146 18.365361 0.004317 0.026917  
2001-11-30 10:41:59 51°25.958 3°9.125 18.401886 0.004317 0.026917  
2001-11-30 10:42:03 51°25.967 3°9.109 18.338929 0.004317 0.026917  
2001-11-30 10:42:07 51°25.976 3°9.092 18.375261 0.004317 0.026917  
2001-11-30 10:42:14 51°25.991 3°9.063 18.375261 0.004317 0.026917  
2001-11-30 10:42:19 51°26.002 3°9.043 18.343363 0.004317 0.026917  
2001-11-30 10:42:24 51°26.013 3°9.022 18.344689 0.004317 0.026917  
2001-11-30 10:42:29 51°26.024 3°9.002 18.347631 0.004317 0.026917  
2001-11-30 10:42:34 51°26.035 3°8.981 18.350365 0.004317 0.026917  
2001-11-30 10:42:39 51°26.046 3°8.96 18.421507 0.004317 0.026917  
2001-11-30 10:42:43 51°26.055 3°8.943 18.421507 0.004317 0.026917  
2001-11-30 10:42:49 51°26.067 3°8.919 18.356787 0.004317 0.026917  
2001-11-30 10:42:54 51°26.078 3°8.897 18.392115 0.004317 0.026917  
2001-11-30 10:42:59 51°26.089 3°8.877 18.362131 0.004317 0.026917  
2001-11-30 10:43:03 51°26.098 3°8.86 18.363332 0.004317 0.026917  
2001-11-30 10:43:09 51°26.111 3°8.835 18.364906 0.004317 0.026918  
2001-11-30 10:43:14 51°26.122 3°8.814 18.364906 0.004317 0.026918  
2001-11-30 10:43:19 51°26.133 3°8.793 18.368551 0.004317 0.026918  
2001-11-30 10:43:24 51°26.143 3°8.772 18.370829 0.004317 0.026918  
2001-11-30 10:43:29 51°26.155 3°8.752 18.371409 0.004317 0.026918  
2001-11-30 10:43:34 51°26.165 3°8.731 18.375799 0.004317 0.026918  
2001-11-30 10:43:39 51°26.177 3°8.71 18.410165 0.004317 0.026918  
2001-11-30 10:43:43 51°26.185 3°8.693 18.410165 0.004317 0.026918  
2001-11-30 10:43:49 51°26.199 3°8.668 18.381431 0.004317 0.026918  
2001-11-30 10:43:54 51°26.209 3°8.647 18.383005 0.004317 0.026918  
2001-11-30 10:43:59 51°26.22 3°8.627 18.385945 0.004317 0.026918  
2001-11-30 10:44:04 51°26.231 3°8.606 18.38785 0.004317 0.026918  
2001-11-30 10:44:07 51°26.238 3°8.593 18.389175 0.004317 0.026918  
2001-11-30 10:44:14 51°26.253 3°8.564 18.389175 0.004317 0.026918  
2001-11-30 10:44:19 51°26.264 3°8.543 18.389465 0.004317 0.026918  
2001-11-30 10:44:24 51°26.274 3°8.521 18.393233 0.004317 0.026918  
2001-11-30 10:44:29 51°26.285 3°8.499 18.397539 0.004317 0.026918  
2001-11-30 10:44:34 51°26.295 3°8.477 18.400395 0.004317 0.026918  
2001-11-30 10:44:39 51°26.305 3°8.455 18.435784 0.004317 0.026918  
2001-11-30 10:44:43 51°26.313 3°8.438 18.435784 0.004317 0.026918  
2001-11-30 10:44:49 51°26.326 3°8.412 18.406067 0.004317 0.026918  
2001-11-30 10:44:54 51°26.336 3°8.39 18.407971 0.004317 0.026918  
2001-11-30 10:44:59 51°26.346 3°8.368 18.445342 0.004317 0.026918  
2001-11-30 10:45:03 51°26.355 3°8.351 18.442942 0.004317 0.026918  
2001-11-30 10:45:09 51°26.367 3°8.325 18.415877 0.004317 0.026918  
2001-11-30 10:45:14 51°26.378 3°8.303 18.415877 0.004317 0.026918  
2001-11-30 10:45:19 51°26.388 3°8.282 18.419189 0.004317 0.026918  
2001-11-30 10:45:23 51°26.396 3°8.264 18.455767 0.004317 0.026918  
2001-11-30 10:45:29 51°26.409 3°8.238 18.45887 0.004317 0.026918  
2001-11-30 10:45:34 51°26.419 3°8.217 18.427011 0.004317 0.026918  
2001-11-30 10:45:39 51°26.43 3°8.195 18.463792 0.004317 0.026918  
2001-11-30 10:45:43 51°26.438 3°8.178 18.463792 0.004317 0.026918  
2001-11-30 10:45:49 51°26.451 3°8.152 18.429618 0.004317 0.026918  
2001-11-30 10:45:54 51°26.461 3°8.131 18.433674 0.004317 0.026918  
2001-11-30 10:45:59 51°26.472 3°8.11 18.437439 0.004317 0.026918  
2001-11-30 10:46:03 51°26.48 3°8.092 18.439094 0.004317 0.026918  
2001-11-30 10:46:09 51°26.493 3°8.066 18.475538 0.004317 0.026918  
2001-11-30 10:46:14 51°26.503 3°8.045 18.475538 0.004317 0.026918  
2001-11-30 10:46:19 51°26.514 3°8.024 18.443522 0.004317 0.026918  
2001-11-30 10:46:24 51°26.524 3°8.002 18.447493 0.004317 0.026918  
2001-11-30 10:46:29 51°26.534 3°7.98 18.450514 0.004317 0.026918  
2001-11-30 10:46:34 51°26.545 3°7.959 18.453368 0.004317 0.026918  
2001-11-30 10:46:39 51°26.555 3°7.937 18.454526 0.004317 0.026918  
2001-11-30 10:46:43 51°26.564 3°7.92 18.454526 0.004317 0.026918  
2001-11-30 10:46:49 51°26.576 3°7.894 18.45767 0.004317 0.026918  
2001-11-30 10:46:54 51°26.587 3°7.873 18.494601 0.004317 0.026918  
2001-11-30 10:46:59 51°26.597 3°7.851 18.464123 0.004317 0.026918  
2001-11-30 10:47:04 51°26.608 3°7.83 18.467267 0.004317 0.026918  
2001-11-30 10:47:07 51°26.614 3°7.817 18.469087 0.004317 0.026918  
2001-11-30 10:47:14 51°26.629 3°7.787 18.469087 0.004317 0.026918  
2001-11-30 10:47:19 51°26.639 3°7.765 18.472147 0.004317 0.026918  
2001-11-30 10:47:24 51°26.649 3°7.744 18.507913 0.004317 0.026918  
2001-11-30 10:47:29 51°26.66 3°7.722 18.4762 0.004317 0.026918  
2001-11-30 10:47:34 51°26.67 3°7.701 18.512708 0.004317 0.026918  
2001-11-30 10:47:39 51°26.681 3°7.68 18.516386 0.004317 0.026918  
2001-11-30 10:47:43 51°26.689 3°7.663 18.516386 0.004317 0.026918  
2001-11-30 10:47:49 51°26.702 3°7.637 18.485256 0.004317 0.026918  
2001-11-30 10:47:54 51°26.712 3°7.616 18.488688 0.004317 0.026918  
2001-11-30 10:47:59 51°26.723 3°7.594 18.491583 0.004317 0.026918  
2001-11-30 10:48:03 51°26.731 3°7.577 18.562786 0.004317 0.026918  
2001-11-30 10:48:09 51°26.744 3°7.551 18.497784 0.004317 0.026918  
2001-11-30 10:48:14 51°26.755 3°7.53 18.497784 0.004317 0.026918  
2001-11-30 10:48:19 51°26.766 3°7.508 18.534239 0.004317 0.026918  
2001-11-30 10:48:24 51°26.776 3°7.487 18.603665 0.004317 0.026918  
2001-11-30 10:48:29 51°26.787 3°7.465 18.504978 0.004317 0.026918  
2001-11-30 10:48:34 51°26.797 3°7.443 18.509235 0.004317 0.026918  
2001-11-30 10:48:39 51°26.808 3°7.422 18.50998 0.004317 0.026918  
2001-11-30 10:48:44 51°26.818 3°7.4 18.50998 0.004317 0.026918  
2001-11-30 10:48:49 51°26.829 3°7.379 18.513162 0.004317 0.026918  
2001-11-30 10:48:54 51°26.839 3°7.357 18.51527 0.004317 0.026918  
2001-11-30 10:48:59 51°26.85 3°7.335 18.519569 0.004317 0.026918  
2001-11-30 10:49:04 51°26.86 3°7.313 18.556384 0.004317 0.026918  
2001-11-30 10:49:07 51°26.866 3°7.3 18.526553 0.004317 0.026918  
2001-11-30 10:49:14 51°26.881 3°7.269 18.526553 0.004317 0.026918  
2001-11-30 10:49:19 51°26.891 3°7.247 18.560721 0.004317 0.026918  
2001-11-30 10:49:24 51°26.901 3°7.226 18.531429 0.004317 0.026918  
2001-11-30 10:49:29 51°26.912 3°7.204 18.532628 0.004317 0.026918  
2001-11-30 10:49:34 51°26.922 3°7.182 18.53519 0.004317 0.026918  
2001-11-30 10:49:39 51°26.933 3°7.16 18.538495 0.004317 0.026918  
2001-11-30 10:49:43 51°26.941 3°7.142 18.538495 0.004317 0.026918  
2001-11-30 10:49:49 51°26.953 3°7.116 18.540933 0.004317 0.026918  
2001-11-30 10:49:54 51°26.963 3°7.094 18.543164 0.004317 0.026918  
2001-11-30 10:49:59 51°26.974 3°7.072 18.546469 0.004317 0.026918  
2001-11-30 10:50:03 51°26.982 3°7.055 18.584757 0.004317 0.026918  
2001-11-30 10:50:09 51°26.995 3°7.029 18.551964 0.004317 0.026918  
2001-11-30 10:50:14 51°27.005 3°7.007 18.551964 0.004317 0.026918  
2001-11-30 10:50:19 51°27.016 3°6.985 18.588308 0.004317 0.026918  
2001-11-30 10:50:24 51°27.026 3°6.964 18.555888 0.004317 0.026918  
2001-11-30 10:50:29 51°27.037 3°6.942 18.594377 0.004317 0.026918  
2001-11-30 10:50:34 51°27.047 3°6.92 18.561175 0.004317 0.026918  
2001-11-30 10:50:39 51°27.058 3°6.899 18.564934 0.004317 0.026918  
2001-11-30 10:50:43 51°27.066 3°6.881 18.564934 0.004317 0.026918  
2001-11-30 10:50:49 51°27.079 3°6.855 18.567619 0.004317 0.026918  
2001-11-30 10:50:54 51°27.089 3°6.833 18.605028 0.004317 0.026918  
2001-11-30 10:50:59 51°27.1 3°6.812 18.574805 0.004317 0.026918  
2001-11-30 10:51:04 51°27.11 3°6.79 18.645222 0.004317 0.026918  
2001-11-30 10:51:09 51°27.12 3°6.768 18.613902 0.004317 0.026918  
2001-11-30 10:51:14 51°27.13 3°6.746 18.613902 0.004317 0.026918  
2001-11-30 10:51:19 51°27.141 3°6.725 18.581206 0.004317 0.026918  
2001-11-30 10:51:24 51°27.151 3°6.703 18.618277 0.004317 0.026918  
2001-11-30 10:51:27 51°27.158 3°6.69 18.588142 0.004317 0.026918  
2001-11-30 10:51:34 51°27.172 3°6.659 18.591239 0.004317 0.026918  
2001-11-30 10:51:39 51°27.183 3°6.637 18.628677 0.004317 0.026918  
2001-11-30 10:51:43 51°27.191 3°6.62 18.628677 0.004317 0.026918  
2001-11-30 10:51:49 51°27.204 3°6.594 18.631524 0.004317 0.026918  
2001-11-30 10:51:54 51°27.214 3°6.572 18.634825 0.004317 0.026918  
2001-11-30 10:51:59 51°27.224 3°6.549 18.670218 0.004317 0.026918  
2001-11-30 10:52:03 51°27.233 3°6.532 18.639363 0.004317 0.026918  
2001-11-30 10:52:09 51°27.245 3°6.505 18.606307 0.004317 0.026918  
2001-11-30 10:52:14 51°27.256 3°6.483 18.606307 0.004317 0.026918  
2001-11-30 10:52:19 51°27.267 3°6.461 18.641633 0.004317 0.026918  
2001-11-30 10:52:23 51°27.275 3°6.444 18.611343 0.004317 0.026918  
2001-11-30 10:52:29 51°27.288 3°6.417 18.648151 0.004317 0.026918  
2001-11-30 10:52:34 51°27.298 3°6.396 18.618896 0.004317 0.026918  
2001-11-30 10:52:39 51°27.309 3°6.374 18.689186 0.004317 0.026918  
2001-11-30 10:52:44 51°27.32 3°6.352 18.689186 0.004317 0.026918  
2001-11-30 10:52:49 51°27.33 3°6.33 18.659454 0.004317 0.026918  
2001-11-30 10:52:54 51°27.341 3°6.308 18.627232 0.004317 0.026918  
2001-11-30 10:52:59 51°27.351 3°6.286 18.6288 0.004317 0.026918  
2001-11-30 10:53:03 51°27.36 3°6.269 18.633092 0.004317 0.026918  
2001-11-30 10:53:09 51°27.372 3°6.242 18.634165 0.004317 0.026918  
2001-11-30 10:53:14 51°27.382 3°6.22 18.634165 0.004317 0.026918  
2001-11-30 10:53:19 51°27.392 3°6.198 18.635898 0.004317 0.026918  
2001-11-30 10:53:24 51°27.402 3°6.175 18.639446 0.004317 0.026918  
2001-11-30 10:53:27 51°27.408 3°6.162 18.668651 0.004317 0.026918  
2001-11-30 10:53:34 51°27.425 3°6.134 18.609032 0.004317 0.026918  
2001-11-30 10:53:39 51°27.438 3°6.117 18.655164 0.004317 0.026918  
2001-11-30 10:53:44 51°27.453 3°6.104 18.655164 0.004317 0.026918  
2001-11-30 10:53:49 51°27.47 3°6.094 18.66795 0.004317 0.026918  
2001-11-30 10:53:54 51°27.486 3°6.087 18.6399 0.004317 0.026918  
2001-11-30 10:53:59 51°27.504 3°6.083 18.645387 0.004317 0.026918  
2001-11-30 10:54:03 51°27.518 3°6.083 18.650049 0.004317 0.026918  
2001-11-30 10:54:09 51°27.54 3°6.086 18.687042 0.004317 0.026918  
2001-11-30 10:54:14 51°27.558 3°6.087 18.687042 0.004317 0.026918  
2001-11-30 10:54:19 51°27.577 3°6.089 18.655824 0.004317 0.026919  
2001-11-30 10:54:24 51°27.595 3°6.09 18.656278 0.004317 0.026919  
2001-11-30 10:54:29 51°27.614 3°6.089 18.695824 0.004317 0.026919  
2001-11-30 10:54:34 51°27.632 3°6.087 18.664362 0.004317 0.026919  
2001-11-30 10:54:39 51°27.651 3°6.084 18.66894 0.004317 0.026919  
2001-11-30 10:54:43 51°27.666 3°6.083 18.66894 0.004317 0.026919  
2001-11-30 10:54:49 51°27.688 3°6.08 18.673064 0.004317 0.026919  
2001-11-30 10:54:54 51°27.707 3°6.076 18.710663 0.004317 0.026919  
2001-11-30 10:54:59 51°27.725 3°6.071 18.747295 0.004317 0.026919  
2001-11-30 10:55:04 51°27.744 3°6.066 20.534996 0.004317 0.02692  
2001-11-30 10:55:07 51°27.755 3°6.063 20.345877 0.004317 0.026921  
2001-11-30 10:55:14 51°27.78 3°6.057 20.345877 0.004317 0.026921  
2001-11-30 10:55:19 51°27.799 3°6.057 19.895877 0.004317 0.026921  
2001-11-30 10:55:24 51°27.817 3°6.061 20.116672 0.004317 0.02692  
2001-11-30 10:55:29 51°27.835 3°6.068 20.382389 0.004317 0.02692  
2001-11-30 10:55:34 51°27.853 3°6.08 19.954492 0.004317 0.026919  
2001-11-30 10:55:39 51°27.869 3°6.095 20.551138 0.004317 0.026919  
2001-11-30 10:55:43 51°27.881 3°6.11 20.551138 0.004317 0.026919  
2001-11-30 10:55:49 51°27.897 3°6.135 20.360976 0.004317 0.026918  
2001-11-30 10:55:54 51°27.909 3°6.16 20.526964 0.004317 0.026918  
2001-11-30 10:55:59 51°27.918 3°6.187 20.129477 0.004317 0.026918  
2001-11-30 10:56:03 51°27.924 3°6.21 19.693735 0.004317 0.026918  
2001-11-30 10:56:09 51°27.93 3°6.246 19.637424 0.004317 0.026918  
2001-11-30 10:56:14 51°27.935 3°6.276 19.637424 0.004317 0.026918  
2001-11-30 10:56:19 51°27.94 3°6.307 19.638847 0.004317 0.026918  
2001-11-30 10:56:24 51°27.946 3°6.337 20.501898 0.004317 0.026918  
2001-11-30 10:56:29 51°27.951 3°6.368 20.011439 0.004317 0.026918  
2001-11-30 10:56:34 51°27.958 3°6.398 19.781952 0.004317 0.026918  
2001-11-30 10:56:39 51°27.965 3°6.429 20.394864 0.004317 0.026918  
2001-11-30 10:56:44 51°27.973 3°6.459 20.394864 0.004317 0.026918  
2001-11-30 10:56:49 51°27.982 3°6.488 20.315994 0.004317 0.026918  
2001-11-30 10:56:54 51°27.991 3°6.517 20.220417 0.004317 0.026918  
2001-11-30 10:56:59 51°28 3°6.547 20.126932 0.004317 0.026918  
2001-11-30 10:57:04 51°28.009 3°6.576 19.946312 0.004317 0.026918  
2001-11-30 10:57:09 51°28.018 3°6.607 20.199761 0.004317 0.026918  
2001-11-30 10:57:14 51°28.026 3°6.637 20.199761 0.004317 0.026918  
2001-11-30 10:57:19 51°28.036 3°6.666 20.161176 0.004317 0.026918  
2001-11-30 10:57:24 51°28.045 3°6.696 20.081275 0.004317 0.026918  
2001-11-30 10:57:27 51°28.051 3°6.714 20.218279 0.004317 0.026918  
2001-11-30 10:57:34 51°28.064 3°6.755 20.082568 0.004317 0.026918  
2001-11-30 10:57:39 51°28.073 3°6.784 20.09744 0.004317 0.026918  
2001-11-30 10:57:44 51°28.082 3°6.813 20.09744 0.004317 0.026918  
2001-11-30 10:57:49 51°28.092 3°6.843 20.110047 0.004317 0.026918  
2001-11-30 10:57:54 51°28.101 3°6.872 20.00104 0.004317 0.026918  
2001-11-30 10:57:59 51°28.11 3°6.902 20.328078 0.004317 0.026918  
2001-11-30 10:58:04 51°28.12 3°6.931 20.438188 0.004317 0.026918  
2001-11-30 10:58:09 51°28.129 3°6.961 20.256873 0.004317 0.026918  
2001-11-30 10:58:14 51°28.139 3°6.99 20.256873 0.004317 0.026918  
2001-11-30 10:58:19 51°28.147 3°7.021 20.773256 0.004317 0.026918  
2001-11-30 10:58:23 51°28.155 3°7.045 20.310112 0.004317 0.026918  
2001-11-30 10:58:29 51°28.165 3°7.081 20.285855 0.004317 0.026918  
2001-11-30 10:58:34 51°28.174 3°7.112 19.945624 0.004317 0.026918  
2001-11-30 10:58:39 51°28.182 3°7.143 20.985981 0.004317 0.026918  
2001-11-30 10:58:43 51°28.189 3°7.167 20.985981 0.004317 0.026918  
2001-11-30 10:58:49 51°28.199 3°7.204 20.30145 0.004317 0.026918  
2001-11-30 10:58:54 51°28.208 3°7.234 20.190722 0.004317 0.026918  
2001-11-30 10:58:59 51°28.217 3°7.265 20.338025 0.004317 0.026919  
2001-11-30 10:59:04 51°28.225 3°7.296 20.47417 0.004317 0.026919  
2001-11-30 10:59:07 51°28.23 3°7.314 19.936511 0.004317 0.026919  
2001-11-30 10:59:14 51°28.243 3°7.355 19.936511 0.004317 0.026919  
2001-11-30 10:59:19 51°28.252 3°7.385 20.544312 0.004317 0.026919  
2001-11-30 10:59:24 51°28.261 3°7.415 20.109683 0.004317 0.026919  
2001-11-30 10:59:29 51°28.271 3°7.444 20.094733 0.004317 0.026919  
2001-11-30 10:59:34 51°28.28 3°7.474 20.348857 0.004317 0.026919  
2001-11-30 10:59:39 51°28.29 3°7.503 20.408584 0.004317 0.026919  
2001-11-30 10:59:43 51°28.298 3°7.527 20.408584 0.004317 0.026919  
2001-11-30 10:59:49 51°28.309 3°7.562 20.119257 0.004317 0.026919  
2001-11-30 10:59:54 51°28.317 3°7.593 20.065955 0.004317 0.026919  
2001-11-30 10:59:59 51°28.327 3°7.622 20.45198 0.004317 0.026919  
2001-11-30 11:00:04 51°28.335 3°7.653 20.249817 0.004317 0.026919  
2001-11-30 11:00:09 51°28.345 3°7.683 20.42379 0.004317 0.026919  
2001-11-30 11:00:14 51°28.353 3°7.713 20.42379 0.004317 0.026919  
2001-11-30 11:00:19 51°28.362 3°7.743 20.329205 0.004317 0.026919  
2001-11-30 11:00:23 51°28.369 3°7.768 20.330494 0.004317 0.026919  
2001-11-30 11:00:27 51°28.376 3°7.792 20.393657 0.004317 0.026919  
2001-11-30 11:00:34 51°28.388 3°7.835 20.321834 0.004317 0.026919  
2001-11-30 11:00:39 51°28.397 3°7.865 19.757553 0.004317 0.026919  
2001-11-30 11:00:44 51°28.405 3°7.896 19.757553 0.004317 0.026919  
2001-11-30 11:00:49 51°28.414 3°7.926 20.799026 0.004317 0.026919  
2001-11-30 11:00:54 51°28.422 3°7.958 20.300765 0.004317 0.026919  
2001-11-30 11:00:59 51°28.431 3°7.988 20.065268 0.004317 0.026919  
2001-11-30 11:01:03 51°28.437 3°8.013 20.009052 0.004317 0.026919  
2001-11-30 11:01:09 51°28.448 3°8.049 20.596291 0.004317 0.026919  
2001-11-30 11:01:14 51°28.457 3°8.08 20.596291 0.004317 0.026919  
2001-11-30 11:01:19 51°28.465 3°8.111 20.237196 0.004317 0.026919  
2001-11-30 11:01:24 51°28.475 3°8.141 20.218077 0.004317 0.026919  
2001-11-30 11:01:29 51°28.483 3°8.172 20.168362 0.004317 0.026919  
2001-11-30 11:01:34 51°28.493 3°8.202 20.498643 0.004317 0.026919  
2001-11-30 11:01:39 51°28.501 3°8.233 20.263565 0.004317 0.026919  
2001-11-30 11:01:44 51°28.51 3°8.263 20.263565 0.004317 0.026919  
2001-11-30 11:01:49 51°28.519 3°8.293 20.412004 0.004317 0.026919  
2001-11-30 11:01:54 51°28.527 3°8.325 20.422583 0.004317 0.026919  
2001-11-30 11:01:59 51°28.536 3°8.355 20.377077 0.004317 0.026919  
2001-11-30 11:02:04 51°28.545 3°8.386 20.077961 0.004317 0.026919  
2001-11-30 11:02:09 51°28.554 3°8.415 20.164729 0.004317 0.026919  
2001-11-30 11:02:14 51°28.563 3°8.446 20.164729 0.004317 0.026919  
2001-11-30 11:02:19 51°28.572 3°8.476 20.285855 0.004317 0.026919  
2001-11-30 11:02:24 51°28.582 3°8.506 20.380417 0.004317 0.026919  
2001-11-30 11:02:29 51°28.591 3°8.536 20.495148 0.004317 0.026919  
2001-11-30 11:02:34 51°28.6 3°8.566 20.681463 0.004317 0.026919  
2001-11-30 11:02:39 51°28.608 3°8.597 20.758046 0.004317 0.026919  
2001-11-30 11:02:44 51°28.618 3°8.626 20.758046 0.004317 0.026919  
2001-11-30 11:02:48 51°28.625 3°8.651 19.888582 0.004317 0.026919  
2001-11-30 11:02:54 51°28.635 3°8.687 20.502058 0.004317 0.026919  
2001-11-30 11:02:59 51°28.644 3°8.717 20.785822 0.004317 0.026919  
2001-11-30 11:03:04 51°28.654 3°8.747 20.204845 0.004317 0.026919  
2001-11-30 11:03:08 51°28.662 3°8.77 20.317524 0.004317 0.026918  
2001-11-30 11:03:14 51°28.672 3°8.806 20.317524 0.004317 0.026918  
2001-11-30 11:03:19 51°28.681 3°8.836 20.66479 0.004317 0.026919  
2001-11-30 11:03:24 51°28.691 3°8.865 20.528088 0.004317 0.026919  
2001-11-30 11:03:28 51°28.698 3°8.89 19.913179 0.004317 0.026919  
2001-11-30 11:03:34 51°28.71 3°8.925 20.392048 0.004317 0.026919  
2001-11-30 11:03:39 51°28.718 3°8.956 21.133231 0.004317 0.026919  
2001-11-30 11:03:44 51°28.728 3°8.985 21.133231 0.004317 0.026919  
2001-11-30 11:03:49 51°28.736 3°9.016 20.572936 0.004317 0.026919  
2001-11-30 11:03:54 51°28.746 3°9.045 20.515436 0.004317 0.026919  
2001-11-30 11:03:59 51°28.754 3°9.076 20.53347 0.004317 0.026919  
2001-11-30 11:04:03 51°28.762 3°9.099 20.365042 0.004317 0.026919  
2001-11-30 11:04:08 51°28.77 3°9.129 20.323365 0.004317 0.026919  
2001-11-30 11:04:14 51°28.781 3°9.165 20.323365 0.004317 0.026919  
2001-11-30 11:04:19 51°28.79 3°9.195 20.673207 0.004317 0.026919  
2001-11-30 11:04:23 51°28.798 3°9.219 20.564025 0.004317 0.026919  
2001-11-30 11:04:29 51°28.809 3°9.255 20.0856 0.004317 0.026919  
2001-11-30 11:04:34 51°28.817 3°9.286 20.271668 0.004317 0.026919  
2001-11-30 11:04:39 51°28.827 3°9.316 20.342616 0.004317 0.026919  
2001-11-30 11:04:44 51°28.836 3°9.346 20.342616 0.004317 0.026919  
2001-11-30 11:04:49 51°28.845 3°9.375 20.396595 0.004317 0.026919  
2001-11-30 11:04:54 51°28.854 3°9.405 20.152778 0.004317 0.026919  
2001-11-30 11:04:59 51°28.863 3°9.435 20.26937 0.004317 0.026919  
2001-11-30 11:05:04 51°28.872 3°9.465 20.209162 0.004317 0.026919  
2001-11-30 11:05:09 51°28.881 3°9.495 20.278198 0.004317 0.026919  
2001-11-30 11:05:14 51°28.891 3°9.524 20.278198 0.004317 0.026919  
2001-11-30 11:05:19 51°28.9 3°9.555 19.985905 0.004317 0.026919  
2001-11-30 11:05:24 51°28.909 3°9.585 19.970969 0.004317 0.026919  
2001-11-30 11:05:29 51°28.918 3°9.615 20.28243 0.004317 0.026919  
2001-11-30 11:05:34 51°28.927 3°9.645 20.640895 0.004317 0.026919  
2001-11-30 11:05:39 51°28.936 3°9.675 19.96769 0.004317 0.026919  
2001-11-30 11:05:44 51°28.944 3°9.706 19.96769 0.004317 0.026919  
2001-11-30 11:05:49 51°28.951 3°9.738 20.556317 0.004317 0.026919  
2001-11-30 11:05:54 51°28.956 3°9.77 19.931206 0.004317 0.026919  
2001-11-30 11:05:59 51°28.961 3°9.803 20.292182 0.004317 0.026919  
2001-11-30 11:06:04 51°28.964 3°9.835 20.168523 0.004317 0.026919  
2001-11-30 11:06:08 51°28.966 3°9.862 20.02487 0.004317 0.026919  
2001-11-30 11:06:14 51°28.967 3°9.901 20.02487 0.004317 0.026919  
2001-11-30 11:06:19 51°28.967 3°9.934 20.599582 0.004317 0.026919  
2001-11-30 11:06:24 51°28.966 3°9.968 19.971334 0.004317 0.026919  
2001-11-30 11:06:28 51°28.964 3°9.994 19.768312 0.004317 0.026919  
2001-11-30 11:06:34 51°28.959 3°10.033 20.110814 0.004317 0.026919  
2001-11-30 11:06:39 51°28.954 3°10.065 20.316598 0.004317 0.026918  
2001-11-30 11:06:44 51°28.947 3°10.096 20.316598 0.004317 0.026918  
2001-11-30 11:06:49 51°28.939 3°10.126 20.509491 0.004317 0.026918  
2001-11-30 11:06:54 51°28.93 3°10.155 20.188664 0.004317 0.026918  
2001-11-30 11:06:59 51°28.92 3°10.183 20.673608 0.004317 0.026918  
2001-11-30 11:07:04 51°28.908 3°10.209 19.90617 0.004317 0.026919  
2001-11-30 11:07:09 51°28.896 3°10.235 19.91249 0.004317 0.026919  
2001-11-30 11:07:14 51°28.884 3°10.262 19.91249 0.004317 0.026919  
2001-11-30 11:07:19 51°28.872 3°10.289 19.872288 0.004317 0.026919  
2001-11-30 11:07:24 51°28.861 3°10.316 20.097683 0.004317 0.026919  
2001-11-30 11:07:28 51°28.852 3°10.338 20.828107 0.004317 0.026918  
2001-11-30 11:07:34 51°28.839 3°10.371 20.225499 0.004317 0.026919  
2001-11-30 11:07:39 51°28.828 3°10.398 20.271749 0.004317 0.026919  
2001-11-30 11:07:44 51°28.817 3°10.427 20.271749 0.004317 0.026919  
2001-11-30 11:07:49 51°28.806 3°10.454 20.112026 0.004317 0.026919  
2001-11-30 11:07:54 51°28.795 3°10.482 20.530137 0.004317 0.026919  
2001-11-30 11:07:59 51°28.784 3°10.51 20.422382 0.004317 0.026919  
2001-11-30 11:08:04 51°28.774 3°10.539 20.96407 0.004317 0.026919  
2001-11-30 11:08:09 51°28.763 3°10.566 20.29605 0.004317 0.026919  
2001-11-30 11:08:14 51°28.752 3°10.595 20.29605 0.004317 0.026919  
2001-11-30 11:08:19 51°28.742 3°10.623 20.225419 0.004317 0.026919